Index of /20260427/WXO-DD/model_rdps/10km/12/028
Name Last modified Size Description
Parent Directory -
20260427T12Z_MSC_RDPS_AbsoluteVorticity_IsbL-0250_RLatLon0.09_PT028H.grib2 2026-04-27 14:50 631K
20260427T12Z_MSC_RDPS_AbsoluteVorticity_IsbL-0500_RLatLon0.09_PT028H.grib2 2026-04-27 14:50 570K
20260427T12Z_MSC_RDPS_AbsoluteVorticity_IsbL-0700_RLatLon0.09_PT028H.grib2 2026-04-27 14:50 615K
20260427T12Z_MSC_RDPS_AbsoluteVorticity_IsbL-0850_RLatLon0.09_PT028H.grib2 2026-04-27 14:50 783K
20260427T12Z_MSC_RDPS_AirTemp_AGL-120m_RLatLon0.09_PT028H.grib2 2026-04-27 14:50 385K
20260427T12Z_MSC_RDPS_AirTemp_AGL-2m_RLatLon0.09_PT028H.grib2 2026-04-27 14:50 640K
20260427T12Z_MSC_RDPS_AirTemp_AGL-40m_RLatLon0.09_PT028H.grib2 2026-04-27 14:50 395K
20260427T12Z_MSC_RDPS_AirTemp_AGL-80m_RLatLon0.09_PT028H.grib2 2026-04-27 14:50 390K
20260427T12Z_MSC_RDPS_AirTemp_IsbL-0001_RLatLon0.09_PT028H.grib2 2026-04-27 14:50 325K
20260427T12Z_MSC_RDPS_AirTemp_IsbL-0005_RLatLon0.09_PT028H.grib2 2026-04-27 14:50 298K
20260427T12Z_MSC_RDPS_AirTemp_IsbL-0010_RLatLon0.09_PT028H.grib2 2026-04-27 14:50 309K
20260427T12Z_MSC_RDPS_AirTemp_IsbL-0020_RLatLon0.09_PT028H.grib2 2026-04-27 14:50 325K
20260427T12Z_MSC_RDPS_AirTemp_IsbL-0030_RLatLon0.09_PT028H.grib2 2026-04-27 14:50 343K
20260427T12Z_MSC_RDPS_AirTemp_IsbL-0050_RLatLon0.09_PT028H.grib2 2026-04-27 14:50 319K
20260427T12Z_MSC_RDPS_AirTemp_IsbL-0100_RLatLon0.09_PT028H.grib2 2026-04-27 14:50 433K
20260427T12Z_MSC_RDPS_AirTemp_IsbL-0150_RLatLon0.09_PT028H.grib2 2026-04-27 14:50 434K
20260427T12Z_MSC_RDPS_AirTemp_IsbL-0175_RLatLon0.09_PT028H.grib2 2026-04-27 14:50 424K
20260427T12Z_MSC_RDPS_AirTemp_IsbL-0200_RLatLon0.09_PT028H.grib2 2026-04-27 14:50 424K
20260427T12Z_MSC_RDPS_AirTemp_IsbL-0225_RLatLon0.09_PT028H.grib2 2026-04-27 14:50 426K
20260427T12Z_MSC_RDPS_AirTemp_IsbL-0250_RLatLon0.09_PT028H.grib2 2026-04-27 14:50 436K
20260427T12Z_MSC_RDPS_AirTemp_IsbL-0275_RLatLon0.09_PT028H.grib2 2026-04-27 14:50 416K
20260427T12Z_MSC_RDPS_AirTemp_IsbL-0300_RLatLon0.09_PT028H.grib2 2026-04-27 14:50 420K
20260427T12Z_MSC_RDPS_AirTemp_IsbL-0350_RLatLon0.09_PT028H.grib2 2026-04-27 14:50 429K
20260427T12Z_MSC_RDPS_AirTemp_IsbL-0400_RLatLon0.09_PT028H.grib2 2026-04-27 14:50 429K
20260427T12Z_MSC_RDPS_AirTemp_IsbL-0450_RLatLon0.09_PT028H.grib2 2026-04-27 14:50 436K
20260427T12Z_MSC_RDPS_AirTemp_IsbL-0500_RLatLon0.09_PT028H.grib2 2026-04-27 14:50 410K
20260427T12Z_MSC_RDPS_AirTemp_IsbL-0550_RLatLon0.09_PT028H.grib2 2026-04-27 14:50 427K
20260427T12Z_MSC_RDPS_AirTemp_IsbL-0600_RLatLon0.09_PT028H.grib2 2026-04-27 14:50 443K
20260427T12Z_MSC_RDPS_AirTemp_IsbL-0650_RLatLon0.09_PT028H.grib2 2026-04-27 14:50 457K
20260427T12Z_MSC_RDPS_AirTemp_IsbL-0700_RLatLon0.09_PT028H.grib2 2026-04-27 14:50 481K
20260427T12Z_MSC_RDPS_AirTemp_IsbL-0750_RLatLon0.09_PT028H.grib2 2026-04-27 14:50 411K
20260427T12Z_MSC_RDPS_AirTemp_IsbL-0800_RLatLon0.09_PT028H.grib2 2026-04-27 14:50 460K
20260427T12Z_MSC_RDPS_AirTemp_IsbL-0850_RLatLon0.09_PT028H.grib2 2026-04-27 14:50 511K
20260427T12Z_MSC_RDPS_AirTemp_IsbL-0875_RLatLon0.09_PT028H.grib2 2026-04-27 14:50 528K
20260427T12Z_MSC_RDPS_AirTemp_IsbL-0900_RLatLon0.09_PT028H.grib2 2026-04-27 14:50 537K
20260427T12Z_MSC_RDPS_AirTemp_IsbL-0925_RLatLon0.09_PT028H.grib2 2026-04-27 14:50 535K
20260427T12Z_MSC_RDPS_AirTemp_IsbL-0950_RLatLon0.09_PT028H.grib2 2026-04-27 14:50 539K
20260427T12Z_MSC_RDPS_AirTemp_IsbL-0970_RLatLon0.09_PT028H.grib2 2026-04-27 14:50 534K
20260427T12Z_MSC_RDPS_AirTemp_IsbL-0985_RLatLon0.09_PT028H.grib2 2026-04-27 14:50 523K
20260427T12Z_MSC_RDPS_AirTemp_IsbL-1000_RLatLon0.09_PT028H.grib2 2026-04-27 14:50 506K
20260427T12Z_MSC_RDPS_AirTemp_IsbL-1015_RLatLon0.09_PT028H.grib2 2026-04-27 14:50 504K
20260427T12Z_MSC_RDPS_Albedo_Sfc_RLatLon0.09_PT028H.grib2 2026-04-27 14:50 163K
20260427T12Z_MSC_RDPS_CAPE_Sfc_RLatLon0.09_PT028H.grib2 2026-04-27 14:50 1.8M
20260427T12Z_MSC_RDPS_CIN_Sfc_RLatLon0.09_PT028H.grib2 2026-04-27 14:50 1.1M
20260427T12Z_MSC_RDPS_CloudWater_EAtm_RLatLon0.09_PT028H.grib2 2026-04-27 14:50 219K
20260427T12Z_MSC_RDPS_ConvectivePrecip-Accum_Sfc_RLatLon0.09_PT028H.grib2 2026-04-27 14:50 1.0M
20260427T12Z_MSC_RDPS_DewPointDepression_AGL-2m_RLatLon0.09_PT028H.grib2 2026-04-27 14:50 421K
20260427T12Z_MSC_RDPS_DewPointDepression_IsbL-0001_RLatLon0.09_PT028H.grib2 2026-04-27 14:50 193
20260427T12Z_MSC_RDPS_DewPointDepression_IsbL-0005_RLatLon0.09_PT028H.grib2 2026-04-27 14:50 193
20260427T12Z_MSC_RDPS_DewPointDepression_IsbL-0010_RLatLon0.09_PT028H.grib2 2026-04-27 14:50 193
20260427T12Z_MSC_RDPS_DewPointDepression_IsbL-0020_RLatLon0.09_PT028H.grib2 2026-04-27 14:50 193
20260427T12Z_MSC_RDPS_DewPointDepression_IsbL-0030_RLatLon0.09_PT028H.grib2 2026-04-27 14:50 622
20260427T12Z_MSC_RDPS_DewPointDepression_IsbL-0050_RLatLon0.09_PT028H.grib2 2026-04-27 14:50 117K
20260427T12Z_MSC_RDPS_DewPointDepression_IsbL-0100_RLatLon0.09_PT028H.grib2 2026-04-27 14:50 130K
20260427T12Z_MSC_RDPS_DewPointDepression_IsbL-0150_RLatLon0.09_PT028H.grib2 2026-04-27 14:50 150K
20260427T12Z_MSC_RDPS_DewPointDepression_IsbL-0175_RLatLon0.09_PT028H.grib2 2026-04-27 14:50 179K
20260427T12Z_MSC_RDPS_DewPointDepression_IsbL-0200_RLatLon0.09_PT028H.grib2 2026-04-27 14:50 213K
20260427T12Z_MSC_RDPS_DewPointDepression_IsbL-0225_RLatLon0.09_PT028H.grib2 2026-04-27 14:50 262K
20260427T12Z_MSC_RDPS_DewPointDepression_IsbL-0250_RLatLon0.09_PT028H.grib2 2026-04-27 14:50 304K
20260427T12Z_MSC_RDPS_DewPointDepression_IsbL-0275_RLatLon0.09_PT028H.grib2 2026-04-27 14:50 310K
20260427T12Z_MSC_RDPS_DewPointDepression_IsbL-0300_RLatLon0.09_PT028H.grib2 2026-04-27 14:50 328K
20260427T12Z_MSC_RDPS_DewPointDepression_IsbL-0350_RLatLon0.09_PT028H.grib2 2026-04-27 14:50 332K
20260427T12Z_MSC_RDPS_DewPointDepression_IsbL-0400_RLatLon0.09_PT028H.grib2 2026-04-27 14:50 346K
20260427T12Z_MSC_RDPS_DewPointDepression_IsbL-0450_RLatLon0.09_PT028H.grib2 2026-04-27 14:50 354K
20260427T12Z_MSC_RDPS_DewPointDepression_IsbL-0500_RLatLon0.09_PT028H.grib2 2026-04-27 14:50 359K
20260427T12Z_MSC_RDPS_DewPointDepression_IsbL-0550_RLatLon0.09_PT028H.grib2 2026-04-27 14:50 368K
20260427T12Z_MSC_RDPS_DewPointDepression_IsbL-0600_RLatLon0.09_PT028H.grib2 2026-04-27 14:50 377K
20260427T12Z_MSC_RDPS_DewPointDepression_IsbL-0650_RLatLon0.09_PT028H.grib2 2026-04-27 14:50 381K
20260427T12Z_MSC_RDPS_DewPointDepression_IsbL-0700_RLatLon0.09_PT028H.grib2 2026-04-27 14:50 393K
20260427T12Z_MSC_RDPS_DewPointDepression_IsbL-0750_RLatLon0.09_PT028H.grib2 2026-04-27 14:50 417K
20260427T12Z_MSC_RDPS_DewPointDepression_IsbL-0800_RLatLon0.09_PT028H.grib2 2026-04-27 14:50 450K
20260427T12Z_MSC_RDPS_DewPointDepression_IsbL-0850_RLatLon0.09_PT028H.grib2 2026-04-27 14:50 476K
20260427T12Z_MSC_RDPS_DewPointDepression_IsbL-0875_RLatLon0.09_PT028H.grib2 2026-04-27 14:50 479K
20260427T12Z_MSC_RDPS_DewPointDepression_IsbL-0900_RLatLon0.09_PT028H.grib2 2026-04-27 14:50 470K
20260427T12Z_MSC_RDPS_DewPointDepression_IsbL-0925_RLatLon0.09_PT028H.grib2 2026-04-27 14:50 459K
20260427T12Z_MSC_RDPS_DewPointDepression_IsbL-0950_RLatLon0.09_PT028H.grib2 2026-04-27 14:50 452K
20260427T12Z_MSC_RDPS_DewPointDepression_IsbL-0970_RLatLon0.09_PT028H.grib2 2026-04-27 14:50 444K
20260427T12Z_MSC_RDPS_DewPointDepression_IsbL-0985_RLatLon0.09_PT028H.grib2 2026-04-27 14:50 440K
20260427T12Z_MSC_RDPS_DewPointDepression_IsbL-1000_RLatLon0.09_PT028H.grib2 2026-04-27 14:50 437K
20260427T12Z_MSC_RDPS_DewPointDepression_IsbL-1015_RLatLon0.09_PT028H.grib2 2026-04-27 14:50 432K
20260427T12Z_MSC_RDPS_DewPoint_AGL-2m_RLatLon0.09_PT028H.grib2 2026-04-27 14:50 408K
20260427T12Z_MSC_RDPS_DownwardLongwaveRadiationFlux-Accum_Sfc_RLatLon0.09_PT028H.grib2 2026-04-27 14:50 461K
20260427T12Z_MSC_RDPS_DownwardShortwaveRadiationFlux-Accum_NTAtm_RLatLon0.09_PT028H.grib2 2026-04-27 14:50 119K
20260427T12Z_MSC_RDPS_DownwardShortwaveRadiationFlux-Accum_Sfc_RLatLon0.09_PT028H.grib2 2026-04-27 14:50 672K
20260427T12Z_MSC_RDPS_FreezingRain-Accum1h_Sfc_RLatLon0.09_PT028H.grib2 2026-04-27 14:50 25K
20260427T12Z_MSC_RDPS_FreezingRain-Accum_Sfc_RLatLon0.09_PT028H.grib2 2026-04-27 14:50 111K
20260427T12Z_MSC_RDPS_GeopotentialHeight_IsbL-0001_RLatLon0.09_PT028H.grib2 2026-04-27 14:50 278K
20260427T12Z_MSC_RDPS_GeopotentialHeight_IsbL-0005_RLatLon0.09_PT028H.grib2 2026-04-27 14:50 316K
20260427T12Z_MSC_RDPS_GeopotentialHeight_IsbL-0010_RLatLon0.09_PT028H.grib2 2026-04-27 14:50 346K
20260427T12Z_MSC_RDPS_GeopotentialHeight_IsbL-0020_RLatLon0.09_PT028H.grib2 2026-04-27 14:50 312K
20260427T12Z_MSC_RDPS_GeopotentialHeight_IsbL-0030_RLatLon0.09_PT028H.grib2 2026-04-27 14:50 314K
20260427T12Z_MSC_RDPS_GeopotentialHeight_IsbL-0050_RLatLon0.09_PT028H.grib2 2026-04-27 14:50 346K
20260427T12Z_MSC_RDPS_GeopotentialHeight_IsbL-0100_RLatLon0.09_PT028H.grib2 2026-04-27 14:50 291K
20260427T12Z_MSC_RDPS_GeopotentialHeight_IsbL-0150_RLatLon0.09_PT028H.grib2 2026-04-27 14:50 233K
20260427T12Z_MSC_RDPS_GeopotentialHeight_IsbL-0175_RLatLon0.09_PT028H.grib2 2026-04-27 14:50 267K
20260427T12Z_MSC_RDPS_GeopotentialHeight_IsbL-0200_RLatLon0.09_PT028H.grib2 2026-04-27 14:50 269K
20260427T12Z_MSC_RDPS_GeopotentialHeight_IsbL-0225_RLatLon0.09_PT028H.grib2 2026-04-27 14:50 269K
20260427T12Z_MSC_RDPS_GeopotentialHeight_IsbL-0250_RLatLon0.09_PT028H.grib2 2026-04-27 14:50 269K
20260427T12Z_MSC_RDPS_GeopotentialHeight_IsbL-0275_RLatLon0.09_PT028H.grib2 2026-04-27 14:50 269K
20260427T12Z_MSC_RDPS_GeopotentialHeight_IsbL-0300_RLatLon0.09_PT028H.grib2 2026-04-27 14:50 269K
20260427T12Z_MSC_RDPS_GeopotentialHeight_IsbL-0350_RLatLon0.09_PT028H.grib2 2026-04-27 14:50 235K
20260427T12Z_MSC_RDPS_GeopotentialHeight_IsbL-0400_RLatLon0.09_PT028H.grib2 2026-04-27 14:50 231K
20260427T12Z_MSC_RDPS_GeopotentialHeight_IsbL-0450_RLatLon0.09_PT028H.grib2 2026-04-27 14:50 227K
20260427T12Z_MSC_RDPS_GeopotentialHeight_IsbL-0500_RLatLon0.09_PT028H.grib2 2026-04-27 14:50 294K
20260427T12Z_MSC_RDPS_GeopotentialHeight_IsbL-0550_RLatLon0.09_PT028H.grib2 2026-04-27 14:50 290K
20260427T12Z_MSC_RDPS_GeopotentialHeight_IsbL-0600_RLatLon0.09_PT028H.grib2 2026-04-27 14:50 287K
20260427T12Z_MSC_RDPS_GeopotentialHeight_IsbL-0650_RLatLon0.09_PT028H.grib2 2026-04-27 14:50 284K
20260427T12Z_MSC_RDPS_GeopotentialHeight_IsbL-0700_RLatLon0.09_PT028H.grib2 2026-04-27 14:50 255K
20260427T12Z_MSC_RDPS_GeopotentialHeight_IsbL-0750_RLatLon0.09_PT028H.grib2 2026-04-27 14:50 340K
20260427T12Z_MSC_RDPS_GeopotentialHeight_IsbL-0800_RLatLon0.09_PT028H.grib2 2026-04-27 14:50 349K
20260427T12Z_MSC_RDPS_GeopotentialHeight_IsbL-0850_RLatLon0.09_PT028H.grib2 2026-04-27 14:50 361K
20260427T12Z_MSC_RDPS_GeopotentialHeight_IsbL-0875_RLatLon0.09_PT028H.grib2 2026-04-27 14:50 364K
20260427T12Z_MSC_RDPS_GeopotentialHeight_IsbL-0900_RLatLon0.09_PT028H.grib2 2026-04-27 14:50 369K
20260427T12Z_MSC_RDPS_GeopotentialHeight_IsbL-0925_RLatLon0.09_PT028H.grib2 2026-04-27 14:50 372K
20260427T12Z_MSC_RDPS_GeopotentialHeight_IsbL-0950_RLatLon0.09_PT028H.grib2 2026-04-27 14:50 409K
20260427T12Z_MSC_RDPS_GeopotentialHeight_IsbL-0970_RLatLon0.09_PT028H.grib2 2026-04-27 14:50 414K
20260427T12Z_MSC_RDPS_GeopotentialHeight_IsbL-0985_RLatLon0.09_PT028H.grib2 2026-04-27 14:50 425K
20260427T12Z_MSC_RDPS_GeopotentialHeight_IsbL-1000_RLatLon0.09_PT028H.grib2 2026-04-27 14:50 438K
20260427T12Z_MSC_RDPS_GeopotentialHeight_IsbL-1015_RLatLon0.09_PT028H.grib2 2026-04-27 14:50 455K
20260427T12Z_MSC_RDPS_Humidex_Sfc_RLatLon0.09_PT028H.grib2 2026-04-27 14:50 2.4M
20260427T12Z_MSC_RDPS_IcePellets-Accum1h_Sfc_RLatLon0.09_PT028H.grib2 2026-04-27 14:50 9.0K
20260427T12Z_MSC_RDPS_IcePellets-Accum_Sfc_RLatLon0.09_PT028H.grib2 2026-04-27 14:50 15K
20260427T12Z_MSC_RDPS_KIndex_Sfc_RLatLon0.09_PT028H.grib2 2026-04-27 14:50 2.5M
20260427T12Z_MSC_RDPS_LatentHeatNetFlux_Sfc_RLatLon0.09_PT028H.grib2 2026-04-27 14:50 303K
20260427T12Z_MSC_RDPS_LiftedIndex-MU-VT_IsbL-0500_RLatLon0.09_PT028H.grib2 2026-04-27 14:50 2.4M
20260427T12Z_MSC_RDPS_NetLongwaveRadiationFlux-Accum_Sfc_RLatLon0.09_PT028H.grib2 2026-04-27 14:50 613K
20260427T12Z_MSC_RDPS_NetShortwaveRadiationFlux-Accum_Sfc_RLatLon0.09_PT028H.grib2 2026-04-27 14:50 672K
20260427T12Z_MSC_RDPS_PlanetaryBoundaryLayerHeight_Sfc_RLatLon0.09_PT028H.grib2 2026-04-27 14:50 1.2M
20260427T12Z_MSC_RDPS_Precip-Accum1h_Sfc_RLatLon0.09_PT028H.grib2 2026-04-27 14:50 1.2M
20260427T12Z_MSC_RDPS_Precip-Accum_Sfc_RLatLon0.09_PT028H.grib2 2026-04-27 14:50 1.9M
20260427T12Z_MSC_RDPS_PrecipRate_Sfc_RLatLon0.09_PT028H.grib2 2026-04-27 14:50 179K
20260427T12Z_MSC_RDPS_PrecipType-Instant_Sfc_RLatLon0.09_PT028H.grib2 2026-04-27 14:50 573K
20260427T12Z_MSC_RDPS_Pressure-Trend3h_Sfc_RLatLon0.09_PT028H.grib2 2026-04-27 14:50 1.2M
20260427T12Z_MSC_RDPS_Pressure_MSL_RLatLon0.09_PT028H.grib2 2026-04-27 14:50 332K
20260427T12Z_MSC_RDPS_Pressure_PVU-1.5_RLatLon0.09_PT028H.grib2 2026-04-27 14:50 2.5M
20260427T12Z_MSC_RDPS_Pressure_PVU-1_RLatLon0.09_PT028H.grib2 2026-04-27 14:50 2.4M
20260427T12Z_MSC_RDPS_Pressure_PVU-2_RLatLon0.09_PT028H.grib2 2026-04-27 14:50 2.4M
20260427T12Z_MSC_RDPS_Pressure_Sfc_RLatLon0.09_PT028H.grib2 2026-04-27 14:50 502K
20260427T12Z_MSC_RDPS_RadiativeTemp_Sfc_RLatLon0.09_PT028H.grib2 2026-04-27 14:50 321K
20260427T12Z_MSC_RDPS_Rain-Accum1h_Sfc_RLatLon0.09_PT028H.grib2 2026-04-27 14:50 601K
20260427T12Z_MSC_RDPS_Rain-Accum_Sfc_RLatLon0.09_PT028H.grib2 2026-04-27 14:50 1.4M
20260427T12Z_MSC_RDPS_RelativeHumidity_AGL-2m_RLatLon0.09_PT028H.grib2 2026-04-27 14:50 1.0M
20260427T12Z_MSC_RDPS_RelativeHumidity_IsbL-0010_RLatLon0.09_PT028H.grib2 2026-04-27 14:50 626K
20260427T12Z_MSC_RDPS_RelativeHumidity_IsbL-0020_RLatLon0.09_PT028H.grib2 2026-04-27 14:50 652K
20260427T12Z_MSC_RDPS_RelativeHumidity_IsbL-0030_RLatLon0.09_PT028H.grib2 2026-04-27 14:50 611K
20260427T12Z_MSC_RDPS_RelativeHumidity_IsbL-0050_RLatLon0.09_PT028H.grib2 2026-04-27 14:50 326K
20260427T12Z_MSC_RDPS_RelativeHumidity_IsbL-0100_RLatLon0.09_PT028H.grib2 2026-04-27 14:50 280K
20260427T12Z_MSC_RDPS_RelativeHumidity_IsbL-0150_RLatLon0.09_PT028H.grib2 2026-04-27 14:50 416K
20260427T12Z_MSC_RDPS_RelativeHumidity_IsbL-0175_RLatLon0.09_PT028H.grib2 2026-04-27 14:50 485K
20260427T12Z_MSC_RDPS_RelativeHumidity_IsbL-0200_RLatLon0.09_PT028H.grib2 2026-04-27 14:50 551K
20260427T12Z_MSC_RDPS_RelativeHumidity_IsbL-0225_RLatLon0.09_PT028H.grib2 2026-04-27 14:50 618K
20260427T12Z_MSC_RDPS_RelativeHumidity_IsbL-0250_RLatLon0.09_PT028H.grib2 2026-04-27 14:50 689K
20260427T12Z_MSC_RDPS_RelativeHumidity_IsbL-0275_RLatLon0.09_PT028H.grib2 2026-04-27 14:50 721K
20260427T12Z_MSC_RDPS_RelativeHumidity_IsbL-0300_RLatLon0.09_PT028H.grib2 2026-04-27 14:50 768K
20260427T12Z_MSC_RDPS_RelativeHumidity_IsbL-0350_RLatLon0.09_PT028H.grib2 2026-04-27 14:50 785K
20260427T12Z_MSC_RDPS_RelativeHumidity_IsbL-0400_RLatLon0.09_PT028H.grib2 2026-04-27 14:50 802K
20260427T12Z_MSC_RDPS_RelativeHumidity_IsbL-0450_RLatLon0.09_PT028H.grib2 2026-04-27 14:50 807K
20260427T12Z_MSC_RDPS_RelativeHumidity_IsbL-0500_RLatLon0.09_PT028H.grib2 2026-04-27 14:50 813K
20260427T12Z_MSC_RDPS_RelativeHumidity_IsbL-0550_RLatLon0.09_PT028H.grib2 2026-04-27 14:50 828K
20260427T12Z_MSC_RDPS_RelativeHumidity_IsbL-0600_RLatLon0.09_PT028H.grib2 2026-04-27 14:50 843K
20260427T12Z_MSC_RDPS_RelativeHumidity_IsbL-0650_RLatLon0.09_PT028H.grib2 2026-04-27 14:50 852K
20260427T12Z_MSC_RDPS_RelativeHumidity_IsbL-0700_RLatLon0.09_PT028H.grib2 2026-04-27 14:50 885K
20260427T12Z_MSC_RDPS_RelativeHumidity_IsbL-0750_RLatLon0.09_PT028H.grib2 2026-04-27 14:50 925K
20260427T12Z_MSC_RDPS_RelativeHumidity_IsbL-0800_RLatLon0.09_PT028H.grib2 2026-04-27 14:50 1.0M
20260427T12Z_MSC_RDPS_RelativeHumidity_IsbL-0850_RLatLon0.09_PT028H.grib2 2026-04-27 14:50 1.0M
20260427T12Z_MSC_RDPS_RelativeHumidity_IsbL-0875_RLatLon0.09_PT028H.grib2 2026-04-27 14:50 1.1M
20260427T12Z_MSC_RDPS_RelativeHumidity_IsbL-0900_RLatLon0.09_PT028H.grib2 2026-04-27 14:50 1.1M
20260427T12Z_MSC_RDPS_RelativeHumidity_IsbL-0925_RLatLon0.09_PT028H.grib2 2026-04-27 14:50 1.1M
20260427T12Z_MSC_RDPS_RelativeHumidity_IsbL-0950_RLatLon0.09_PT028H.grib2 2026-04-27 14:50 1.1M
20260427T12Z_MSC_RDPS_RelativeHumidity_IsbL-0970_RLatLon0.09_PT028H.grib2 2026-04-27 14:50 1.1M
20260427T12Z_MSC_RDPS_RelativeHumidity_IsbL-0985_RLatLon0.09_PT028H.grib2 2026-04-27 14:50 1.1M
20260427T12Z_MSC_RDPS_RelativeHumidity_IsbL-1000_RLatLon0.09_PT028H.grib2 2026-04-27 14:50 1.0M
20260427T12Z_MSC_RDPS_RelativeHumidity_IsbL-1015_RLatLon0.09_PT028H.grib2 2026-04-27 14:50 1.0M
20260427T12Z_MSC_RDPS_Runoff-Accum_Sfc_RLatLon0.09_PT028H.grib2 2026-04-27 14:50 51K
20260427T12Z_MSC_RDPS_SWEATIndex_Sfc_RLatLon0.09_PT028H.grib2 2026-04-27 14:50 2.4M
20260427T12Z_MSC_RDPS_SeeingIndex_EAtm_RLatLon0.09_PT028H.grib2 2026-04-27 14:50 1.0M
20260427T12Z_MSC_RDPS_SensibleHeatNetFlux_Sfc_RLatLon0.09_PT028H.grib2 2026-04-27 14:50 368K
20260427T12Z_MSC_RDPS_ShowalterIndex_IsbL-0500_RLatLon0.09_PT028H.grib2 2026-04-27 14:50 2.6M
20260427T12Z_MSC_RDPS_SkyTransparencyIndex_EAtm_RLatLon0.09_PT028H.grib2 2026-04-27 14:50 712K
20260427T12Z_MSC_RDPS_Snow-Accum1h_Sfc_RLatLon0.09_PT028H.grib2 2026-04-27 14:50 475K
20260427T12Z_MSC_RDPS_Snow-Accum_Sfc_RLatLon0.09_PT028H.grib2 2026-04-27 14:50 769K
20260427T12Z_MSC_RDPS_SnowDensity_Sfc_RLatLon0.09_PT028H.grib2 2026-04-27 14:50 183K
20260427T12Z_MSC_RDPS_SnowDepth_Sfc_RLatLon0.09_PT028H.grib2 2026-04-27 14:50 711K
20260427T12Z_MSC_RDPS_SoilTemp_DBS-0to10cm_RLatLon0.09_PT028H.grib2 2026-04-27 14:50 225K
20260427T12Z_MSC_RDPS_SoilTemp_Sfc_RLatLon0.09_PT028H.grib2 2026-04-27 14:50 289K
20260427T12Z_MSC_RDPS_SoilVolumetricIceContent_Sfc_RLatLon0.09_PT028H.grib2 2026-04-27 14:50 169K
20260427T12Z_MSC_RDPS_SoilVolumetricWaterContent_DBS-0to10cm_RLatLon0.09_PT028H.grib2 2026-04-27 14:50 261K
20260427T12Z_MSC_RDPS_SoilVolumetricWaterContent_DBS-0to1cm_RLatLon0.09_PT028H.grib2 2026-04-27 14:50 336K
20260427T12Z_MSC_RDPS_SpecificHumidity_AGL-120m_RLatLon0.09_PT028H.grib2 2026-04-27 14:50 498K
20260427T12Z_MSC_RDPS_SpecificHumidity_AGL-2m_RLatLon0.09_PT028H.grib2 2026-04-27 14:50 669K
20260427T12Z_MSC_RDPS_SpecificHumidity_AGL-40m_RLatLon0.09_PT028H.grib2 2026-04-27 14:50 503K
20260427T12Z_MSC_RDPS_SpecificHumidity_AGL-80m_RLatLon0.09_PT028H.grib2 2026-04-27 14:50 500K
20260427T12Z_MSC_RDPS_SpecificHumidity_IsbL-0001_RLatLon0.09_PT028H.grib2 2026-04-27 14:50 348K
20260427T12Z_MSC_RDPS_SpecificHumidity_IsbL-0005_RLatLon0.09_PT028H.grib2 2026-04-27 14:50 359K
20260427T12Z_MSC_RDPS_SpecificHumidity_IsbL-0010_RLatLon0.09_PT028H.grib2 2026-04-27 14:50 400K
20260427T12Z_MSC_RDPS_SpecificHumidity_IsbL-0020_RLatLon0.09_PT028H.grib2 2026-04-27 14:50 391K
20260427T12Z_MSC_RDPS_SpecificHumidity_IsbL-0030_RLatLon0.09_PT028H.grib2 2026-04-27 14:50 479K
20260427T12Z_MSC_RDPS_SpecificHumidity_IsbL-0050_RLatLon0.09_PT028H.grib2 2026-04-27 14:50 467K
20260427T12Z_MSC_RDPS_SpecificHumidity_IsbL-0100_RLatLon0.09_PT028H.grib2 2026-04-27 14:50 425K
20260427T12Z_MSC_RDPS_SpecificHumidity_IsbL-0150_RLatLon0.09_PT028H.grib2 2026-04-27 14:50 377K
20260427T12Z_MSC_RDPS_SpecificHumidity_IsbL-0175_RLatLon0.09_PT028H.grib2 2026-04-27 14:50 459K
20260427T12Z_MSC_RDPS_SpecificHumidity_IsbL-0200_RLatLon0.09_PT028H.grib2 2026-04-27 14:50 450K
20260427T12Z_MSC_RDPS_SpecificHumidity_IsbL-0225_RLatLon0.09_PT028H.grib2 2026-04-27 14:50 453K
20260427T12Z_MSC_RDPS_SpecificHumidity_IsbL-0250_RLatLon0.09_PT028H.grib2 2026-04-27 14:50 556K
20260427T12Z_MSC_RDPS_SpecificHumidity_IsbL-0275_RLatLon0.09_PT028H.grib2 2026-04-27 14:50 473K
20260427T12Z_MSC_RDPS_SpecificHumidity_IsbL-0300_RLatLon0.09_PT028H.grib2 2026-04-27 14:50 548K
20260427T12Z_MSC_RDPS_SpecificHumidity_IsbL-0350_RLatLon0.09_PT028H.grib2 2026-04-27 14:50 539K
20260427T12Z_MSC_RDPS_SpecificHumidity_IsbL-0400_RLatLon0.09_PT028H.grib2 2026-04-27 14:50 523K
20260427T12Z_MSC_RDPS_SpecificHumidity_IsbL-0450_RLatLon0.09_PT028H.grib2 2026-04-27 14:50 577K
20260427T12Z_MSC_RDPS_SpecificHumidity_IsbL-0500_RLatLon0.09_PT028H.grib2 2026-04-27 14:50 513K
20260427T12Z_MSC_RDPS_SpecificHumidity_IsbL-0550_RLatLon0.09_PT028H.grib2 2026-04-27 14:50 567K
20260427T12Z_MSC_RDPS_SpecificHumidity_IsbL-0600_RLatLon0.09_PT028H.grib2 2026-04-27 14:50 631K
20260427T12Z_MSC_RDPS_SpecificHumidity_IsbL-0650_RLatLon0.09_PT028H.grib2 2026-04-27 14:50 546K
20260427T12Z_MSC_RDPS_SpecificHumidity_IsbL-0700_RLatLon0.09_PT028H.grib2 2026-04-27 14:50 590K
20260427T12Z_MSC_RDPS_SpecificHumidity_IsbL-0750_RLatLon0.09_PT028H.grib2 2026-04-27 14:50 647K
20260427T12Z_MSC_RDPS_SpecificHumidity_IsbL-0800_RLatLon0.09_PT028H.grib2 2026-04-27 14:50 722K
20260427T12Z_MSC_RDPS_SpecificHumidity_IsbL-0850_RLatLon0.09_PT028H.grib2 2026-04-27 14:50 805K
20260427T12Z_MSC_RDPS_SpecificHumidity_IsbL-0875_RLatLon0.09_PT028H.grib2 2026-04-27 14:50 832K
20260427T12Z_MSC_RDPS_SpecificHumidity_IsbL-0900_RLatLon0.09_PT028H.grib2 2026-04-27 14:50 845K
20260427T12Z_MSC_RDPS_SpecificHumidity_IsbL-0925_RLatLon0.09_PT028H.grib2 2026-04-27 14:50 706K
20260427T12Z_MSC_RDPS_SpecificHumidity_IsbL-0950_RLatLon0.09_PT028H.grib2 2026-04-27 14:50 706K
20260427T12Z_MSC_RDPS_SpecificHumidity_IsbL-0970_RLatLon0.09_PT028H.grib2 2026-04-27 14:50 698K
20260427T12Z_MSC_RDPS_SpecificHumidity_IsbL-0985_RLatLon0.09_PT028H.grib2 2026-04-27 14:50 694K
20260427T12Z_MSC_RDPS_SpecificHumidity_IsbL-1000_RLatLon0.09_PT028H.grib2 2026-04-27 14:50 689K
20260427T12Z_MSC_RDPS_SpecificHumidity_IsbL-1015_RLatLon0.09_PT028H.grib2 2026-04-27 14:50 681K
20260427T12Z_MSC_RDPS_SpecificHumidity_Sfc_RLatLon0.09_PT028H.grib2 2026-04-27 14:50 330K
20260427T12Z_MSC_RDPS_StormRelativeHelicity_EtaL-10000_RLatLon0.09_PT028H.grib2 2026-04-27 14:50 1.1M
20260427T12Z_MSC_RDPS_StormSeverityIndex_EtaL-10000_RLatLon0.09_PT028H.grib2 2026-04-27 14:50 1.2M
20260427T12Z_MSC_RDPS_Thickness_IsbL-0850to0700_RLatLon0.09_PT028H.grib2 2026-04-27 14:50 178K
20260427T12Z_MSC_RDPS_Thickness_IsbL-1000to0500_RLatLon0.09_PT028H.grib2 2026-04-27 14:50 201K
20260427T12Z_MSC_RDPS_Thickness_IsbL-1000to0850_RLatLon0.09_PT028H.grib2 2026-04-27 14:50 190K
20260427T12Z_MSC_RDPS_TotalCloudCover_Sfc_RLatLon0.09_PT028H.grib2 2026-04-27 14:50 654K
20260427T12Z_MSC_RDPS_TotalTotalsIndex_Sfc_RLatLon0.09_PT028H.grib2 2026-04-27 14:50 2.4M
20260427T12Z_MSC_RDPS_UVIndex-ClearSky_Sfc_RLatLon0.09_PT028H.grib2 2026-04-27 14:50 206K
20260427T12Z_MSC_RDPS_UVIndex_Sfc_RLatLon0.09_PT028H.grib2 2026-04-27 14:50 471K
20260427T12Z_MSC_RDPS_UpwardLongwaveRadiationFlux_NTAtm_RLatLon0.09_PT028H.grib2 2026-04-27 14:50 497K
20260427T12Z_MSC_RDPS_UpwardShortwaveRadiationFlux_NTAtm_RLatLon0.09_PT028H.grib2 2026-04-27 14:50 514K
20260427T12Z_MSC_RDPS_VerticalVelocity_IsbL-0250_RLatLon0.09_PT028H.grib2 2026-04-27 14:50 559K
20260427T12Z_MSC_RDPS_VerticalVelocity_IsbL-0500_RLatLon0.09_PT028H.grib2 2026-04-27 14:50 548K
20260427T12Z_MSC_RDPS_VerticalVelocity_IsbL-0700_RLatLon0.09_PT028H.grib2 2026-04-27 14:50 595K
20260427T12Z_MSC_RDPS_VerticalVelocity_IsbL-0850_RLatLon0.09_PT028H.grib2 2026-04-27 14:50 718K
20260427T12Z_MSC_RDPS_VerticalWindShear_EtaL-6500_RLatLon0.09_PT028H.grib2 2026-04-27 14:50 1.2M
20260427T12Z_MSC_RDPS_WindChill_Sfc_RLatLon0.09_PT028H.grib2 2026-04-27 14:50 1.1M
20260427T12Z_MSC_RDPS_WindDir_AGL-10m_RLatLon0.09_PT028H.grib2 2026-04-27 14:50 1.0M
20260427T12Z_MSC_RDPS_WindDir_AGL-120m_RLatLon0.09_PT028H.grib2 2026-04-27 14:50 620K
20260427T12Z_MSC_RDPS_WindDir_AGL-40m_RLatLon0.09_PT028H.grib2 2026-04-27 14:50 644K
20260427T12Z_MSC_RDPS_WindDir_AGL-80m_RLatLon0.09_PT028H.grib2 2026-04-27 14:50 630K
20260427T12Z_MSC_RDPS_WindDir_IsbL-0001_RLatLon0.09_PT028H.grib2 2026-04-27 14:50 298K
20260427T12Z_MSC_RDPS_WindDir_IsbL-0005_RLatLon0.09_PT028H.grib2 2026-04-27 14:50 364K
20260427T12Z_MSC_RDPS_WindDir_IsbL-0010_RLatLon0.09_PT028H.grib2 2026-04-27 14:50 366K
20260427T12Z_MSC_RDPS_WindDir_IsbL-0020_RLatLon0.09_PT028H.grib2 2026-04-27 14:50 406K
20260427T12Z_MSC_RDPS_WindDir_IsbL-0030_RLatLon0.09_PT028H.grib2 2026-04-27 14:50 409K
20260427T12Z_MSC_RDPS_WindDir_IsbL-0050_RLatLon0.09_PT028H.grib2 2026-04-27 14:50 432K
20260427T12Z_MSC_RDPS_WindDir_IsbL-0100_RLatLon0.09_PT028H.grib2 2026-04-27 14:50 419K
20260427T12Z_MSC_RDPS_WindDir_IsbL-0150_RLatLon0.09_PT028H.grib2 2026-04-27 14:50 416K
20260427T12Z_MSC_RDPS_WindDir_IsbL-0175_RLatLon0.09_PT028H.grib2 2026-04-27 14:50 437K
20260427T12Z_MSC_RDPS_WindDir_IsbL-0200_RLatLon0.09_PT028H.grib2 2026-04-27 14:50 445K
20260427T12Z_MSC_RDPS_WindDir_IsbL-0225_RLatLon0.09_PT028H.grib2 2026-04-27 14:50 451K
20260427T12Z_MSC_RDPS_WindDir_IsbL-0250_RLatLon0.09_PT028H.grib2 2026-04-27 14:50 450K
20260427T12Z_MSC_RDPS_WindDir_IsbL-0275_RLatLon0.09_PT028H.grib2 2026-04-27 14:50 471K
20260427T12Z_MSC_RDPS_WindDir_IsbL-0300_RLatLon0.09_PT028H.grib2 2026-04-27 14:50 470K
20260427T12Z_MSC_RDPS_WindDir_IsbL-0350_RLatLon0.09_PT028H.grib2 2026-04-27 14:50 493K
20260427T12Z_MSC_RDPS_WindDir_IsbL-0400_RLatLon0.09_PT028H.grib2 2026-04-27 14:50 518K
20260427T12Z_MSC_RDPS_WindDir_IsbL-0450_RLatLon0.09_PT028H.grib2 2026-04-27 14:50 534K
20260427T12Z_MSC_RDPS_WindDir_IsbL-0500_RLatLon0.09_PT028H.grib2 2026-04-27 14:50 544K
20260427T12Z_MSC_RDPS_WindDir_IsbL-0550_RLatLon0.09_PT028H.grib2 2026-04-27 14:50 550K
20260427T12Z_MSC_RDPS_WindDir_IsbL-0600_RLatLon0.09_PT028H.grib2 2026-04-27 14:50 576K
20260427T12Z_MSC_RDPS_WindDir_IsbL-0650_RLatLon0.09_PT028H.grib2 2026-04-27 14:50 621K
20260427T12Z_MSC_RDPS_WindDir_IsbL-0700_RLatLon0.09_PT028H.grib2 2026-04-27 14:50 660K
20260427T12Z_MSC_RDPS_WindDir_IsbL-0750_RLatLon0.09_PT028H.grib2 2026-04-27 14:50 709K
20260427T12Z_MSC_RDPS_WindDir_IsbL-0800_RLatLon0.09_PT028H.grib2 2026-04-27 14:50 782K
20260427T12Z_MSC_RDPS_WindDir_IsbL-0850_RLatLon0.09_PT028H.grib2 2026-04-27 14:50 862K
20260427T12Z_MSC_RDPS_WindDir_IsbL-0875_RLatLon0.09_PT028H.grib2 2026-04-27 14:50 891K
20260427T12Z_MSC_RDPS_WindDir_IsbL-0900_RLatLon0.09_PT028H.grib2 2026-04-27 14:50 906K
20260427T12Z_MSC_RDPS_WindDir_IsbL-0925_RLatLon0.09_PT028H.grib2 2026-04-27 14:50 917K
20260427T12Z_MSC_RDPS_WindDir_IsbL-0950_RLatLon0.09_PT028H.grib2 2026-04-27 14:50 919K
20260427T12Z_MSC_RDPS_WindDir_IsbL-0970_RLatLon0.09_PT028H.grib2 2026-04-27 14:50 926K
20260427T12Z_MSC_RDPS_WindDir_IsbL-0985_RLatLon0.09_PT028H.grib2 2026-04-27 14:50 935K
20260427T12Z_MSC_RDPS_WindDir_IsbL-1000_RLatLon0.09_PT028H.grib2 2026-04-27 14:50 951K
20260427T12Z_MSC_RDPS_WindDir_IsbL-1015_RLatLon0.09_PT028H.grib2 2026-04-27 14:50 969K
20260427T12Z_MSC_RDPS_WindGust-Max_AGL-10m_RLatLon0.09_PT028H.grib2 2026-04-27 14:50 954K
20260427T12Z_MSC_RDPS_WindGust-Min_AGL-10m_RLatLon0.09_PT028H.grib2 2026-04-27 14:50 1.0M
20260427T12Z_MSC_RDPS_WindGust_AGL-10m_RLatLon0.09_PT028H.grib2 2026-04-27 14:50 1.0M
20260427T12Z_MSC_RDPS_WindSpeed_AGL-10m_RLatLon0.09_PT028H.grib2 2026-04-27 14:50 850K
20260427T12Z_MSC_RDPS_WindSpeed_AGL-120m_RLatLon0.09_PT028H.grib2 2026-04-27 14:50 552K
20260427T12Z_MSC_RDPS_WindSpeed_AGL-40m_RLatLon0.09_PT028H.grib2 2026-04-27 14:50 545K
20260427T12Z_MSC_RDPS_WindSpeed_AGL-80m_RLatLon0.09_PT028H.grib2 2026-04-27 14:50 542K
20260427T12Z_MSC_RDPS_WindSpeed_IsbL-0001_RLatLon0.09_PT028H.grib2 2026-04-27 14:50 256K
20260427T12Z_MSC_RDPS_WindSpeed_IsbL-0005_RLatLon0.09_PT028H.grib2 2026-04-27 14:50 300K
20260427T12Z_MSC_RDPS_WindSpeed_IsbL-0010_RLatLon0.09_PT028H.grib2 2026-04-27 14:50 406K
20260427T12Z_MSC_RDPS_WindSpeed_IsbL-0020_RLatLon0.09_PT028H.grib2 2026-04-27 14:50 331K
20260427T12Z_MSC_RDPS_WindSpeed_IsbL-0030_RLatLon0.09_PT028H.grib2 2026-04-27 14:50 327K
20260427T12Z_MSC_RDPS_WindSpeed_IsbL-0050_RLatLon0.09_PT028H.grib2 2026-04-27 14:50 355K
20260427T12Z_MSC_RDPS_WindSpeed_IsbL-0100_RLatLon0.09_PT028H.grib2 2026-04-27 14:50 487K
20260427T12Z_MSC_RDPS_WindSpeed_IsbL-0150_RLatLon0.09_PT028H.grib2 2026-04-27 14:50 390K
20260427T12Z_MSC_RDPS_WindSpeed_IsbL-0175_RLatLon0.09_PT028H.grib2 2026-04-27 14:50 439K
20260427T12Z_MSC_RDPS_WindSpeed_IsbL-0200_RLatLon0.09_PT028H.grib2 2026-04-27 14:50 453K
20260427T12Z_MSC_RDPS_WindSpeed_IsbL-0225_RLatLon0.09_PT028H.grib2 2026-04-27 14:50 457K
20260427T12Z_MSC_RDPS_WindSpeed_IsbL-0250_RLatLon0.09_PT028H.grib2 2026-04-27 14:50 443K
20260427T12Z_MSC_RDPS_WindSpeed_IsbL-0275_RLatLon0.09_PT028H.grib2 2026-04-27 14:50 483K
20260427T12Z_MSC_RDPS_WindSpeed_IsbL-0300_RLatLon0.09_PT028H.grib2 2026-04-27 14:50 480K
20260427T12Z_MSC_RDPS_WindSpeed_IsbL-0350_RLatLon0.09_PT028H.grib2 2026-04-27 14:50 471K
20260427T12Z_MSC_RDPS_WindSpeed_IsbL-0400_RLatLon0.09_PT028H.grib2 2026-04-27 14:50 472K
20260427T12Z_MSC_RDPS_WindSpeed_IsbL-0450_RLatLon0.09_PT028H.grib2 2026-04-27 14:50 588K
20260427T12Z_MSC_RDPS_WindSpeed_IsbL-0500_RLatLon0.09_PT028H.grib2 2026-04-27 14:50 584K
20260427T12Z_MSC_RDPS_WindSpeed_IsbL-0550_RLatLon0.09_PT028H.grib2 2026-04-27 14:50 583K
20260427T12Z_MSC_RDPS_WindSpeed_IsbL-0600_RLatLon0.09_PT028H.grib2 2026-04-27 14:50 591K
20260427T12Z_MSC_RDPS_WindSpeed_IsbL-0650_RLatLon0.09_PT028H.grib2 2026-04-27 14:50 611K
20260427T12Z_MSC_RDPS_WindSpeed_IsbL-0700_RLatLon0.09_PT028H.grib2 2026-04-27 14:50 631K
20260427T12Z_MSC_RDPS_WindSpeed_IsbL-0750_RLatLon0.09_PT028H.grib2 2026-04-27 14:50 661K
20260427T12Z_MSC_RDPS_WindSpeed_IsbL-0800_RLatLon0.09_PT028H.grib2 2026-04-27 14:50 710K
20260427T12Z_MSC_RDPS_WindSpeed_IsbL-0850_RLatLon0.09_PT028H.grib2 2026-04-27 14:50 771K
20260427T12Z_MSC_RDPS_WindSpeed_IsbL-0875_RLatLon0.09_PT028H.grib2 2026-04-27 14:50 794K
20260427T12Z_MSC_RDPS_WindSpeed_IsbL-0900_RLatLon0.09_PT028H.grib2 2026-04-27 14:50 809K
20260427T12Z_MSC_RDPS_WindSpeed_IsbL-0925_RLatLon0.09_PT028H.grib2 2026-04-27 14:50 865K
20260427T12Z_MSC_RDPS_WindSpeed_IsbL-0950_RLatLon0.09_PT028H.grib2 2026-04-27 14:50 863K
20260427T12Z_MSC_RDPS_WindSpeed_IsbL-0970_RLatLon0.09_PT028H.grib2 2026-04-27 14:50 864K
20260427T12Z_MSC_RDPS_WindSpeed_IsbL-0985_RLatLon0.09_PT028H.grib2 2026-04-27 14:50 859K
20260427T12Z_MSC_RDPS_WindSpeed_IsbL-1000_RLatLon0.09_PT028H.grib2 2026-04-27 14:50 858K
20260427T12Z_MSC_RDPS_WindSpeed_IsbL-1015_RLatLon0.09_PT028H.grib2 2026-04-27 14:50 849K
20260427T12Z_MSC_RDPS_WindU_AGL-10m_RLatLon0.09_PT028H.grib2 2026-04-27 14:50 439K
20260427T12Z_MSC_RDPS_WindU_AGL-120m_RLatLon0.09_PT028H.grib2 2026-04-27 14:50 422K
20260427T12Z_MSC_RDPS_WindU_AGL-40m_RLatLon0.09_PT028H.grib2 2026-04-27 14:50 425K
20260427T12Z_MSC_RDPS_WindU_AGL-80m_RLatLon0.09_PT028H.grib2 2026-04-27 14:50 422K
20260427T12Z_MSC_RDPS_WindU_IsbL-0001_RLatLon0.09_PT028H.grib2 2026-04-27 14:50 297K
20260427T12Z_MSC_RDPS_WindU_IsbL-0005_RLatLon0.09_PT028H.grib2 2026-04-27 14:50 336K
20260427T12Z_MSC_RDPS_WindU_IsbL-0010_RLatLon0.09_PT028H.grib2 2026-04-27 14:50 304K
20260427T12Z_MSC_RDPS_WindU_IsbL-0020_RLatLon0.09_PT028H.grib2 2026-04-27 14:50 328K
20260427T12Z_MSC_RDPS_WindU_IsbL-0030_RLatLon0.09_PT028H.grib2 2026-04-27 14:50 356K
20260427T12Z_MSC_RDPS_WindU_IsbL-0050_RLatLon0.09_PT028H.grib2 2026-04-27 14:50 383K
20260427T12Z_MSC_RDPS_WindU_IsbL-0100_RLatLon0.09_PT028H.grib2 2026-04-27 14:50 344K
20260427T12Z_MSC_RDPS_WindU_IsbL-0150_RLatLon0.09_PT028H.grib2 2026-04-27 14:50 407K
20260427T12Z_MSC_RDPS_WindU_IsbL-0175_RLatLon0.09_PT028H.grib2 2026-04-27 14:50 433K
20260427T12Z_MSC_RDPS_WindU_IsbL-0200_RLatLon0.09_PT028H.grib2 2026-04-27 14:50 345K
20260427T12Z_MSC_RDPS_WindU_IsbL-0225_RLatLon0.09_PT028H.grib2 2026-04-27 14:50 348K
20260427T12Z_MSC_RDPS_WindU_IsbL-0250_RLatLon0.09_PT028H.grib2 2026-04-27 14:50 453K
20260427T12Z_MSC_RDPS_WindU_IsbL-0275_RLatLon0.09_PT028H.grib2 2026-04-27 14:50 472K
20260427T12Z_MSC_RDPS_WindU_IsbL-0300_RLatLon0.09_PT028H.grib2 2026-04-27 14:50 466K
20260427T12Z_MSC_RDPS_WindU_IsbL-0350_RLatLon0.09_PT028H.grib2 2026-04-27 14:50 473K
20260427T12Z_MSC_RDPS_WindU_IsbL-0400_RLatLon0.09_PT028H.grib2 2026-04-27 14:50 475K
20260427T12Z_MSC_RDPS_WindU_IsbL-0450_RLatLon0.09_PT028H.grib2 2026-04-27 14:50 473K
20260427T12Z_MSC_RDPS_WindU_IsbL-0500_RLatLon0.09_PT028H.grib2 2026-04-27 14:50 471K
20260427T12Z_MSC_RDPS_WindU_IsbL-0550_RLatLon0.09_PT028H.grib2 2026-04-27 14:50 454K
20260427T12Z_MSC_RDPS_WindU_IsbL-0600_RLatLon0.09_PT028H.grib2 2026-04-27 14:50 462K
20260427T12Z_MSC_RDPS_WindU_IsbL-0650_RLatLon0.09_PT028H.grib2 2026-04-27 14:50 480K
20260427T12Z_MSC_RDPS_WindU_IsbL-0700_RLatLon0.09_PT028H.grib2 2026-04-27 14:50 500K
20260427T12Z_MSC_RDPS_WindU_IsbL-0750_RLatLon0.09_PT028H.grib2 2026-04-27 14:50 527K
20260427T12Z_MSC_RDPS_WindU_IsbL-0800_RLatLon0.09_PT028H.grib2 2026-04-27 14:50 572K
20260427T12Z_MSC_RDPS_WindU_IsbL-0850_RLatLon0.09_PT028H.grib2 2026-04-27 14:50 635K
20260427T12Z_MSC_RDPS_WindU_IsbL-0875_RLatLon0.09_PT028H.grib2 2026-04-27 14:50 654K
20260427T12Z_MSC_RDPS_WindU_IsbL-0900_RLatLon0.09_PT028H.grib2 2026-04-27 14:50 664K
20260427T12Z_MSC_RDPS_WindU_IsbL-0925_RLatLon0.09_PT028H.grib2 2026-04-27 14:50 669K
20260427T12Z_MSC_RDPS_WindU_IsbL-0950_RLatLon0.09_PT028H.grib2 2026-04-27 14:50 659K
20260427T12Z_MSC_RDPS_WindU_IsbL-0970_RLatLon0.09_PT028H.grib2 2026-04-27 14:50 659K
20260427T12Z_MSC_RDPS_WindU_IsbL-0985_RLatLon0.09_PT028H.grib2 2026-04-27 14:50 657K
20260427T12Z_MSC_RDPS_WindU_IsbL-1000_RLatLon0.09_PT028H.grib2 2026-04-27 14:50 656K
20260427T12Z_MSC_RDPS_WindU_IsbL-1015_RLatLon0.09_PT028H.grib2 2026-04-27 14:50 791K
20260427T12Z_MSC_RDPS_WindV_AGL-10m_RLatLon0.09_PT028H.grib2 2026-04-27 14:50 438K
20260427T12Z_MSC_RDPS_WindV_AGL-120m_RLatLon0.09_PT028H.grib2 2026-04-27 14:50 537K
20260427T12Z_MSC_RDPS_WindV_AGL-40m_RLatLon0.09_PT028H.grib2 2026-04-27 14:50 540K
20260427T12Z_MSC_RDPS_WindV_AGL-80m_RLatLon0.09_PT028H.grib2 2026-04-27 14:50 538K
20260427T12Z_MSC_RDPS_WindV_IsbL-0001_RLatLon0.09_PT028H.grib2 2026-04-27 14:50 247K
20260427T12Z_MSC_RDPS_WindV_IsbL-0005_RLatLon0.09_PT028H.grib2 2026-04-27 14:50 292K
20260427T12Z_MSC_RDPS_WindV_IsbL-0010_RLatLon0.09_PT028H.grib2 2026-04-27 14:50 304K
20260427T12Z_MSC_RDPS_WindV_IsbL-0020_RLatLon0.09_PT028H.grib2 2026-04-27 14:50 323K
20260427T12Z_MSC_RDPS_WindV_IsbL-0030_RLatLon0.09_PT028H.grib2 2026-04-27 14:50 321K
20260427T12Z_MSC_RDPS_WindV_IsbL-0050_RLatLon0.09_PT028H.grib2 2026-04-27 14:50 351K
20260427T12Z_MSC_RDPS_WindV_IsbL-0100_RLatLon0.09_PT028H.grib2 2026-04-27 14:50 339K
20260427T12Z_MSC_RDPS_WindV_IsbL-0150_RLatLon0.09_PT028H.grib2 2026-04-27 14:50 404K
20260427T12Z_MSC_RDPS_WindV_IsbL-0175_RLatLon0.09_PT028H.grib2 2026-04-27 14:50 430K
20260427T12Z_MSC_RDPS_WindV_IsbL-0200_RLatLon0.09_PT028H.grib2 2026-04-27 14:50 343K
20260427T12Z_MSC_RDPS_WindV_IsbL-0225_RLatLon0.09_PT028H.grib2 2026-04-27 14:50 346K
20260427T12Z_MSC_RDPS_WindV_IsbL-0250_RLatLon0.09_PT028H.grib2 2026-04-27 14:50 348K
20260427T12Z_MSC_RDPS_WindV_IsbL-0275_RLatLon0.09_PT028H.grib2 2026-04-27 14:50 366K
20260427T12Z_MSC_RDPS_WindV_IsbL-0300_RLatLon0.09_PT028H.grib2 2026-04-27 14:50 363K
20260427T12Z_MSC_RDPS_WindV_IsbL-0350_RLatLon0.09_PT028H.grib2 2026-04-27 14:50 368K
20260427T12Z_MSC_RDPS_WindV_IsbL-0400_RLatLon0.09_PT028H.grib2 2026-04-27 14:50 473K
20260427T12Z_MSC_RDPS_WindV_IsbL-0450_RLatLon0.09_PT028H.grib2 2026-04-27 14:50 471K
20260427T12Z_MSC_RDPS_WindV_IsbL-0500_RLatLon0.09_PT028H.grib2 2026-04-27 14:50 468K
20260427T12Z_MSC_RDPS_WindV_IsbL-0550_RLatLon0.09_PT028H.grib2 2026-04-27 14:50 467K
20260427T12Z_MSC_RDPS_WindV_IsbL-0600_RLatLon0.09_PT028H.grib2 2026-04-27 14:50 475K
20260427T12Z_MSC_RDPS_WindV_IsbL-0650_RLatLon0.09_PT028H.grib2 2026-04-27 14:50 493K
20260427T12Z_MSC_RDPS_WindV_IsbL-0700_RLatLon0.09_PT028H.grib2 2026-04-27 14:50 510K
20260427T12Z_MSC_RDPS_WindV_IsbL-0750_RLatLon0.09_PT028H.grib2 2026-04-27 14:50 535K
20260427T12Z_MSC_RDPS_WindV_IsbL-0800_RLatLon0.09_PT028H.grib2 2026-04-27 14:50 578K
20260427T12Z_MSC_RDPS_WindV_IsbL-0850_RLatLon0.09_PT028H.grib2 2026-04-27 14:50 630K
20260427T12Z_MSC_RDPS_WindV_IsbL-0875_RLatLon0.09_PT028H.grib2 2026-04-27 14:50 642K
20260427T12Z_MSC_RDPS_WindV_IsbL-0900_RLatLon0.09_PT028H.grib2 2026-04-27 14:50 655K
20260427T12Z_MSC_RDPS_WindV_IsbL-0925_RLatLon0.09_PT028H.grib2 2026-04-27 14:50 661K
20260427T12Z_MSC_RDPS_WindV_IsbL-0950_RLatLon0.09_PT028H.grib2 2026-04-27 14:50 657K
20260427T12Z_MSC_RDPS_WindV_IsbL-0970_RLatLon0.09_PT028H.grib2 2026-04-27 14:50 656K
20260427T12Z_MSC_RDPS_WindV_IsbL-0985_RLatLon0.09_PT028H.grib2 2026-04-27 14:50 795K
20260427T12Z_MSC_RDPS_WindV_IsbL-1000_RLatLon0.09_PT028H.grib2 2026-04-27 14:50 793K
20260427T12Z_MSC_RDPS_WindV_IsbL-1015_RLatLon0.09_PT028H.grib2 2026-04-27 14:50 788K